Time,TemperatureF,DewpointF,PressureIn,WindDirection,WindDirectionDegrees,WindSpeedMPH,WindSpeedGustMPH,Humidity,HourlyPrecipIn,Conditions,Clouds,dailyrainin,SoftwareType,DateUTC
2013-01-02 00:00:00,28.6,14.5,30.07,WNW,300,6.0,11.0,55,0.00,,,0.00,meteohub,2013-01-02 05:00:00,
2013-01-02 00:02:00,28.6,14.5,30.07,NNW,340,7.0,14.0,55,0.00,,,0.00,meteohub,2013-01-02 05:02:00,
2013-01-02 00:07:00,28.2,14.5,30.08,WNW,294,6.0,14.0,56,0.00,,,0.00,meteohub,2013-01-02 05:07:00,
2013-01-02 00:12:00,28.2,14.5,30.08,WNW,291,5.0,15.0,56,0.00,,,0.00,meteohub,2013-01-02 05:12:00,
2013-01-02 00:17:00,28.2,14.5,30.08,NNE,16,6.0,17.0,56,0.00,,,0.00,meteohub,2013-01-02 05:17:00,
2013-01-02 00:22:00,28.0,14.4,30.08,NW,323,3.0,17.0,56,0.00,,,0.00,meteohub,2013-01-02 05:22:00,
2013-01-02 00:27:00,28.0,14.7,30.07,North,6,9.0,17.0,57,0.00,,,0.00,meteohub,2013-01-02 05:27:00,
2013-01-02 00:32:00,28.0,14.7,30.07,North,355,7.0,13.0,57,0.00,,,0.00,meteohub,2013-01-02 05:32:00,
2013-01-02 00:37:00,27.9,14.5,30.06,North,356,3.0,13.0,57,0.00,,,0.00,meteohub,2013-01-02 05:37:00,
2013-01-02 00:42:00,27.7,14.4,30.06,North,8,1.0,9.0,57,0.00,,,0.00,meteohub,2013-01-02 05:42:00,
2013-01-02 00:47:00,27.7,14.4,30.06,NW,304,2.0,8.0,57,0.00,,,0.00,meteohub,2013-01-02 05:47:00,
2013-01-02 00:52:00,27.7,14.9,30.06,NW,326,3.0,9.0,58,0.00,,,0.00,meteohub,2013-01-02 05:52:00,
2013-01-02 00:57:00,27.7,14.9,30.07,NW,325,3.0,9.0,58,0.00,,,0.00,meteohub,2013-01-02 05:57:00,
2013-01-02 01:03:00,27.7,14.9,30.07,West,280,5.0,9.0,58,0.00,,,0.00,meteohub,2013-01-02 06:03:00,
2013-01-02 01:08:00,27.5,14.7,30.06,NE,40,1.0,9.0,58,0.00,,,0.00,meteohub,2013-01-02 06:08:00,
2013-01-02 01:13:00,27.5,15.1,30.06,North,6,2.0,9.0,59,0.00,,,0.00,meteohub,2013-01-02 06:13:00,
2013-01-02 01:18:00,27.3,14.9,30.06,West,271,2.0,9.0,59,0.00,,,0.00,meteohub,2013-01-02 06:18:00,
2013-01-02 01:23:00,27.3,14.9,30.06,North,356,4.0,8.0,59,0.00,,,0.00,meteohub,2013-01-02 06:23:00,
2013-01-02 01:28:00,27.3,14.9,30.06,WNW,296,3.0,7.0,59,0.00,,,0.00,meteohub,2013-01-02 06:28:00,
2013-01-02 01:33:00,27.1,15.1,30.06,NW,307,2.0,7.0,60,0.00,,,0.00,meteohub,2013-01-02 06:33:00,
2013-01-02 01:38:00,27.1,15.1,30.06,WNW,297,6.0,7.0,60,0.00,,,0.00,meteohub,2013-01-02 06:38:00,
2013-01-02 01:43:00,27.1,15.1,30.06,NW,324,6.0,13.0,60,0.00,,,0.00,meteohub,2013-01-02 06:43:00,
2013-01-02 01:48:00,27.0,14.9,30.06,NNE,25,3.0,13.0,60,0.00,,,0.00,meteohub,2013-01-02 06:48:00,
2013-01-02 01:53:00,27.0,14.9,30.06,NW,323,1.0,13.0,60,0.00,,,0.00,meteohub,2013-01-02 06:53:00,
2013-01-02 01:58:00,27.0,15.3,30.06,NNW,336,0.0,9.0,61,0.00,,,0.00,meteohub,2013-01-02 06:58:00,
2013-01-02 02:03:00,26.8,15.1,30.06,NNW,332,0.0,9.0,61,0.00,,,0.00,meteohub,2013-01-02 07:03:00,
2013-01-02 02:08:00,26.8,15.1,30.06,North,358,0.0,9.0,61,0.00,,,0.00,meteohub,2013-01-02 07:08:00,
2013-01-02 02:13:00,26.8,15.1,30.06,NE,37,4.0,9.0,61,0.00,,,0.00,meteohub,2013-01-02 07:13:00,
2013-01-02 02:18:00,26.6,15.3,30.06,NNE,29,2.0,9.0,62,0.00,,,0.00,meteohub,2013-01-02 07:18:00,
2013-01-02 02:23:00,26.6,15.3,30.07,North,359,3.0,7.0,62,0.00,,,0.00,meteohub,2013-01-02 07:23:00,
2013-01-02 02:28:00,26.6,15.6,30.06,NNE,23,3.0,7.0,63,0.00,,,0.00,meteohub,2013-01-02 07:28:00,
2013-01-02 02:33:00,26.4,15.1,30.06,WNW,301,1.0,8.0,62,0.00,,,0.00,meteohub,2013-01-02 07:33:00,
2013-01-02 02:38:00,26.4,15.6,30.07,ENE,60,3.0,8.0,63,0.00,,,0.00,meteohub,2013-01-02 07:38:00,
2013-01-02 02:43:00,26.2,15.1,30.08,NNW,338,3.0,8.0,62,0.00,,,0.00,meteohub,2013-01-02 07:43:00,
2013-01-02 02:48:00,26.2,15.1,30.09,NNW,342,3.0,8.0,62,0.00,,,0.00,meteohub,2013-01-02 07:48:00,
2013-01-02 02:53:00,26.2,15.1,30.09,NNE,20,4.0,8.0,62,0.00,,,0.00,meteohub,2013-01-02 07:53:00,
2013-01-02 02:58:00,26.1,15.3,30.08,NNW,343,2.0,8.0,63,0.00,,,0.00,meteohub,2013-01-02 07:58:00,
2013-01-02 03:03:00,26.1,15.3,30.08,North,11,2.0,7.0,63,0.00,,,0.00,meteohub,2013-01-02 08:03:00,
2013-01-02 03:08:00,25.9,15.1,30.08,NNW,332,1.0,7.0,63,0.00,,,0.00,meteohub,2013-01-02 08:08:00,
2013-01-02 03:13:00,25.9,15.1,30.07,North,359,3.0,7.0,63,0.00,,,0.00,meteohub,2013-01-02 08:13:00,
2013-01-02 03:18:00,25.9,15.1,30.07,North,351,2.0,7.0,63,0.00,,,0.00,meteohub,2013-01-02 08:18:00,
2013-01-02 03:23:00,25.7,14.9,30.08,NW,313,1.0,5.0,63,0.00,,,0.00,meteohub,2013-01-02 08:23:00,
2013-01-02 03:28:00,25.7,14.9,30.07,North,1,2.0,5.0,63,0.00,,,0.00,meteohub,2013-01-02 08:28:00,
2013-01-02 03:33:00,25.5,14.7,30.08,NW,304,1.0,5.0,63,0.00,,,0.00,meteohub,2013-01-02 08:33:00,
2013-01-02 03:38:00,25.5,15.1,30.08,NNW,335,1.0,5.0,64,0.00,,,0.00,meteohub,2013-01-02 08:38:00,
2013-01-02 03:43:00,25.5,14.7,30.07,NNE,18,2.0,5.0,63,0.00,,,0.00,meteohub,2013-01-02 08:43:00,
2013-01-02 03:48:00,25.3,14.5,30.08,NNW,343,2.0,7.0,63,0.00,,,0.00,meteohub,2013-01-02 08:48:00,
2013-01-02 03:53:00,25.3,14.5,30.08,NNE,22,5.0,7.0,63,0.00,,,0.00,meteohub,2013-01-02 08:53:00,
2013-01-02 03:58:00,25.3,14.5,30.08,NNW,345,2.0,7.0,63,0.00,,,0.00,meteohub,2013-01-02 08:58:00,
2013-01-02 04:03:00,25.2,14.4,30.07,North,353,4.0,7.0,63,0.00,,,0.00,meteohub,2013-01-02 09:03:00,
2013-01-02 04:08:00,25.2,14.4,30.07,NNE,12,1.0,7.0,63,0.00,,,0.00,meteohub,2013-01-02 09:08:00,
2013-01-02 04:14:00,25.2,14.4,30.07,NNE,18,5.0,7.0,63,0.00,,,0.00,meteohub,2013-01-02 09:14:00,
2013-01-02 04:19:00,25.0,14.2,30.07,NW,305,2.0,7.0,63,0.00,,,0.00,meteohub,2013-01-02 09:19:00,
2013-01-02 04:24:00,25.0,13.8,30.08,ENE,57,3.0,6.0,62,0.00,,,0.00,meteohub,2013-01-02 09:24:00,
2013-01-02 04:29:00,25.0,13.8,30.08,North,354,3.0,10.0,62,0.00,,,0.00,meteohub,2013-01-02 09:29:00,
2013-01-02 04:34:00,25.0,13.8,30.08,NE,40,3.0,10.0,62,0.00,,,0.00,meteohub,2013-01-02 09:34:00,
2013-01-02 04:39:00,25.0,13.8,30.08,North,357,2.0,10.0,62,0.00,,,0.00,meteohub,2013-01-02 09:39:00,
2013-01-02 04:44:00,25.0,13.8,30.08,North,349,3.0,7.0,62,0.00,,,0.00,meteohub,2013-01-02 09:44:00,
2013-01-02 04:49:00,24.8,13.6,30.08,NNE,29,2.0,9.0,62,0.00,,,0.00,meteohub,2013-01-02 09:49:00,
2013-01-02 04:54:00,24.8,13.6,30.08,NE,37,0.0,9.0,62,0.00,,,0.00,meteohub,2013-01-02 09:54:00,
2013-01-02 04:59:00,24.6,13.1,30.07,NNW,345,2.0,9.0,61,0.00,,,0.00,meteohub,2013-01-02 09:59:00,
2013-01-02 05:04:00,24.6,13.5,30.08,NNE,27,1.0,6.0,62,0.00,,,0.00,meteohub,2013-01-02 10:04:00,
2013-01-02 05:09:00,24.6,13.1,30.07,North,5,0.0,6.0,61,0.00,,,0.00,meteohub,2013-01-02 10:09:00,
2013-01-02 05:14:00,24.6,13.1,30.07,NE,50,2.0,6.0,61,0.00,,,0.00,meteohub,2013-01-02 10:14:00,
2013-01-02 05:19:00,24.6,13.1,30.08,ENE,65,3.0,6.0,61,0.00,,,0.00,meteohub,2013-01-02 10:19:00,
2013-01-02 05:24:00,24.6,13.5,30.08,WNW,290,0.0,6.0,62,0.00,,,0.00,meteohub,2013-01-02 10:24:00,
2013-01-02 05:29:00,24.6,13.5,30.08,NW,322,0.0,4.0,62,0.00,,,0.00,meteohub,2013-01-02 10:29:00,
2013-01-02 05:34:00,24.6,13.1,30.09,NNW,345,0.0,3.0,61,0.00,,,0.00,meteohub,2013-01-02 10:34:00,
2013-01-02 05:39:00,24.4,13.3,30.08,NW,308,1.0,3.0,62,0.00,,,0.00,meteohub,2013-01-02 10:39:00,
2013-01-02 05:44:00,24.4,13.3,30.08,NNE,29,0.0,3.0,62,0.00,,,0.00,meteohub,2013-01-02 10:44:00,
2013-01-02 05:49:00,24.4,13.3,30.08,West,274,0.0,3.0,62,0.00,,,0.00,meteohub,2013-01-02 10:49:00,
2013-01-02 05:54:00,24.4,13.3,30.09,NNW,327,0.0,3.0,62,0.00,,,0.00,meteohub,2013-01-02 10:54:00,
2013-01-02 05:59:00,24.4,13.3,30.09,NW,316,0.0,2.0,62,0.00,,,0.00,meteohub,2013-01-02 10:59:00,
2013-01-02 06:04:00,24.4,13.3,30.08,WNW,296,2.0,2.0,62,0.00,,,0.00,meteohub,2013-01-02 11:04:00,
2013-01-02 06:09:00,24.4,13.6,30.08,NW,313,0.0,2.0,63,0.00,,,0.00,meteohub,2013-01-02 11:09:00,
2013-01-02 06:14:00,24.4,13.6,30.08,WNW,295,1.0,2.0,63,0.00,,,0.00,meteohub,2013-01-02 11:14:00,
2013-01-02 06:19:00,24.3,13.5,30.09,WNW,295,0.0,2.0,63,0.00,,,0.00,meteohub,2013-01-02 11:19:00,
2013-01-02 06:24:00,24.3,13.5,30.09,WNW,288,0.0,1.0,63,0.00,,,0.00,meteohub,2013-01-02 11:24:00,
2013-01-02 06:29:00,24.4,13.6,30.08,NW,316,0.0,2.0,63,0.00,,,0.00,meteohub,2013-01-02 11:29:00,
2013-01-02 06:34:00,24.3,13.5,30.08,NW,326,1.0,2.0,63,0.00,,,0.00,meteohub,2013-01-02 11:34:00,
2013-01-02 06:40:00,24.3,13.5,30.08,NW,324,0.0,2.0,63,0.00,,,0.00,meteohub,2013-01-02 11:40:00,
2013-01-02 06:45:00,24.3,13.5,30.08,NW,315,0.0,1.0,63,0.00,,,0.00,meteohub,2013-01-02 11:45:00,
2013-01-02 06:50:00,24.3,13.5,30.08,NW,314,0.0,1.0,63,0.00,,,0.00,meteohub,2013-01-02 11:50:00,
2013-01-02 06:55:00,24.1,13.6,30.08,WNW,290,0.0,1.0,64,0.00,,,0.00,meteohub,2013-01-02 11:55:00,
2013-01-02 07:00:00,24.1,13.6,30.08,WNW,295,0.0,1.0,64,0.00,,,0.00,meteohub,2013-01-02 12:00:00,
2013-01-02 07:05:00,24.1,13.6,30.09,WNW,295,0.0,1.0,64,0.00,,,0.00,meteohub,2013-01-02 12:05:00,
2013-01-02 07:10:00,23.9,13.5,30.09,WNW,295,0.0,1.0,64,0.00,,,0.00,meteohub,2013-01-02 12:10:00,
2013-01-02 07:15:00,23.7,13.6,30.09,WNW,295,0.0,1.0,65,0.00,,,0.00,meteohub,2013-01-02 12:15:00,
2013-01-02 07:20:00,23.7,13.6,30.09,WNW,295,0.0,1.0,65,0.00,,,0.00,meteohub,2013-01-02 12:20:00,
2013-01-02 07:25:00,23.5,13.8,30.09,WNW,295,0.0,0.0,66,0.00,,,0.00,meteohub,2013-01-02 12:25:00,
2013-01-02 07:30:00,23.5,13.8,30.09,WNW,295,0.0,0.0,66,0.00,,,0.00,meteohub,2013-01-02 12:30:00,
2013-01-02 07:35:00,23.4,13.6,30.09,WNW,295,0.0,0.0,66,0.00,,,0.00,meteohub,2013-01-02 12:35:00,
2013-01-02 07:40:00,23.5,13.8,30.09,WNW,298,1.0,3.0,66,0.00,,,0.00,meteohub,2013-01-02 12:40:00,
2013-01-02 07:45:00,23.7,14.0,30.09,WNW,300,1.0,3.0,66,0.00,,,0.00,meteohub,2013-01-02 12:45:00,
2013-01-02 07:50:00,24.1,14.0,30.10,WNW,284,3.0,3.0,65,0.00,,,0.00,meteohub,2013-01-02 12:50:00,
2013-01-02 07:55:00,24.3,13.8,30.10,NW,326,1.0,3.0,64,0.00,,,0.00,meteohub,2013-01-02 12:55:00,
2013-01-02 08:00:00,24.3,13.5,30.10,NW,311,1.0,3.0,63,0.00,,,0.00,meteohub,2013-01-02 13:00:00,
2013-01-02 08:05:00,24.4,14.0,30.10,NW,308,0.0,3.0,64,0.00,,,0.00,meteohub,2013-01-02 13:05:00,
2013-01-02 08:10:00,24.4,14.0,30.11,WNW,298,1.0,5.0,64,0.00,,,0.00,meteohub,2013-01-02 13:10:00,
2013-01-02 08:15:00,24.6,13.8,30.11,NW,307,1.0,5.0,63,0.00,,,0.00,meteohub,2013-01-02 13:15:00,
2013-01-02 08:20:00,24.8,14.0,30.11,WNW,291,4.0,5.0,63,0.00,,,0.00,meteohub,2013-01-02 13:20:00,
2013-01-02 08:25:00,25.0,13.8,30.11,WNW,300,5.0,6.0,62,0.00,,,0.00,meteohub,2013-01-02 13:25:00,
2013-01-02 08:30:00,25.0,13.8,30.12,WNW,291,5.0,9.0,62,0.00,,,0.00,meteohub,2013-01-02 13:30:00,
2013-01-02 08:35:00,25.2,14.0,30.12,NW,316,4.0,9.0,62,0.00,,,0.00,meteohub,2013-01-02 13:35:00,
2013-01-02 08:40:00,25.2,13.6,30.12,WNW,296,5.0,9.0,61,0.00,,,0.00,meteohub,2013-01-02 13:40:00,
2013-01-02 08:45:00,25.2,14.0,30.12,WNW,296,5.0,7.0,62,0.00,,,0.00,meteohub,2013-01-02 13:45:00,
2013-01-02 08:50:00,25.3,13.8,30.13,West,274,6.0,7.0,61,0.00,,,0.00,meteohub,2013-01-02 13:50:00,
2013-01-02 08:55:00,25.3,14.2,30.13,NW,321,3.0,6.0,62,0.00,,,0.00,meteohub,2013-01-02 13:55:00,
2013-01-02 09:00:00,25.5,14.0,30.13,NW,311,3.0,8.0,61,0.00,,,0.00,meteohub,2013-01-02 14:00:00,
2013-01-02 09:05:00,25.5,14.4,30.13,WNW,297,4.0,8.0,62,0.00,,,0.00,meteohub,2013-01-02 14:05:00,
2013-01-02 09:10:00,25.7,14.9,30.13,WNW,297,4.0,8.0,63,0.00,,,0.00,meteohub,2013-01-02 14:10:00,
2013-01-02 09:15:00,25.7,14.9,30.14,West,266,3.0,10.0,63,0.00,,,0.00,meteohub,2013-01-02 14:15:00,
2013-01-02 09:20:00,25.7,14.9,30.14,WNW,294,3.0,10.0,63,0.00,,,0.00,meteohub,2013-01-02 14:20:00,
2013-01-02 09:25:00,25.9,15.1,30.14,West,271,4.0,10.0,63,0.00,,,0.00,meteohub,2013-01-02 14:25:00,
2013-01-02 09:30:00,26.1,15.3,30.14,WNW,296,8.0,9.0,63,0.00,,,0.00,meteohub,2013-01-02 14:30:00,
2013-01-02 09:35:00,26.1,14.9,30.14,WNW,288,7.0,9.0,62,0.00,,,0.00,meteohub,2013-01-02 14:35:00,
2013-01-02 09:40:00,26.2,15.1,30.14,WNW,289,4.0,9.0,62,0.00,,,0.00,meteohub,2013-01-02 14:40:00,
2013-01-02 09:45:00,26.4,15.1,30.14,West,266,4.0,8.0,62,0.00,,,0.00,meteohub,2013-01-02 14:45:00,
2013-01-02 09:50:00,26.4,14.7,30.14,West,281,4.0,8.0,61,0.00,,,0.00,meteohub,2013-01-02 14:50:00,
2013-01-02 09:55:00,26.6,14.9,30.14,WNW,302,2.0,8.0,61,0.00,,,0.00,meteohub,2013-01-02 14:55:00,
2013-01-02 10:00:00,27.0,15.3,30.14,WNW,296,3.0,8.0,61,0.00,,,0.00,meteohub,2013-01-02 15:00:00,
2013-01-02 10:05:00,27.1,15.1,30.14,WNW,292,5.0,7.0,60,0.00,,,0.00,meteohub,2013-01-02 15:05:00,
2013-01-02 10:10:00,27.1,15.4,30.15,NNW,328,3.0,7.0,61,0.00,,,0.00,meteohub,2013-01-02 15:10:00,
2013-01-02 10:15:00,27.3,15.3,30.15,SSE,166,0.0,7.0,60,0.00,,,0.00,meteohub,2013-01-02 15:15:00,
2013-01-02 10:20:00,27.5,15.4,30.14,WNW,294,5.0,7.0,60,0.00,,,0.00,meteohub,2013-01-02 15:20:00,
2013-01-02 10:25:00,27.7,15.6,30.14,SW,232,4.0,7.0,60,0.00,,,0.00,meteohub,2013-01-02 15:25:00,
2013-01-02 10:30:00,27.7,15.3,30.14,West,281,5.0,16.0,59,0.00,,,0.00,meteohub,2013-01-02 15:30:00,
2013-01-02 10:35:00,27.7,15.3,30.14,WNW,300,10.0,16.0,59,0.00,,,0.00,meteohub,2013-01-02 15:35:00,
2013-01-02 10:40:00,27.9,15.4,30.14,WNW,294,7.0,16.0,59,0.00,,,0.00,meteohub,2013-01-02 15:40:00,
2013-01-02 10:45:00,28.2,15.8,30.13,WNW,297,3.0,12.0,59,0.00,,,0.00,meteohub,2013-01-02 15:45:00,
2013-01-02 10:50:00,28.6,16.2,30.14,West,267,9.0,12.0,59,0.00,,,0.00,meteohub,2013-01-02 15:50:00,
2013-01-02 10:55:00,28.8,16.2,30.14,NW,320,4.0,11.0,59,0.00,,,0.00,meteohub,2013-01-02 15:55:00,
2013-01-02 11:00:00,28.9,16.0,30.13,WNW,284,7.0,11.0,58,0.00,,,0.00,meteohub,2013-01-02 16:00:00,
2013-01-02 11:05:00,29.1,16.2,30.13,WNW,289,7.0,11.0,58,0.00,,,0.00,meteohub,2013-01-02 16:05:00,
2013-01-02 11:10:00,28.9,16.0,30.13,NW,314,4.0,11.0,58,0.00,,,0.00,meteohub,2013-01-02 16:10:00,
2013-01-02 11:15:00,29.1,16.5,30.13,NNW,332,6.0,12.0,59,0.00,,,0.00,meteohub,2013-01-02 16:15:00,
2013-01-02 11:20:00,29.5,16.5,30.13,NW,304,6.0,12.0,58,0.00,,,0.00,meteohub,2013-01-02 16:20:00,
2013-01-02 11:25:00,29.5,16.5,30.13,NW,307,4.0,13.0,58,0.00,,,0.00,meteohub,2013-01-02 16:25:00,
2013-01-02 11:30:00,29.5,16.2,30.12,NW,311,8.0,13.0,57,0.00,,,0.00,meteohub,2013-01-02 16:30:00,
2013-01-02 11:35:00,29.5,16.5,30.12,NNW,328,6.0,14.0,58,0.00,,,0.00,meteohub,2013-01-02 16:35:00,
2013-01-02 11:41:00,30.0,17.1,30.12,WNW,295,6.0,14.0,58,0.00,,,0.00,meteohub,2013-01-02 16:41:00,
2013-01-02 11:46:00,30.0,16.7,30.12,WNW,287,10.0,14.0,57,0.00,,,0.00,meteohub,2013-01-02 16:46:00,
2013-01-02 11:51:00,30.0,16.7,30.11,NW,317,12.0,14.0,57,0.00,,,0.00,meteohub,2013-01-02 16:51:00,
2013-01-02 11:56:00,30.0,16.7,30.12,NW,316,1.0,15.0,57,0.00,,,0.00,meteohub,2013-01-02 16:56:00,
2013-01-02 12:01:00,30.0,16.2,30.11,WNW,283,5.0,15.0,56,0.00,,,0.00,meteohub,2013-01-02 17:01:00,
2013-01-02 12:06:00,30.2,16.3,30.11,WNW,291,4.0,15.0,56,0.00,,,0.00,meteohub,2013-01-02 17:06:00,
2013-01-02 12:11:00,30.6,16.7,30.11,WNW,295,10.0,17.0,56,0.00,,,0.00,meteohub,2013-01-02 17:11:00,
2013-01-02 12:16:00,30.7,16.9,30.10,NW,320,9.0,17.0,56,0.00,,,0.00,meteohub,2013-01-02 17:16:00,
2013-01-02 12:21:00,30.9,16.7,30.10,NW,307,4.0,17.0,55,0.00,,,0.00,meteohub,2013-01-02 17:21:00,
2013-01-02 12:26:00,31.3,17.1,30.10,NW,309,7.0,14.0,55,0.00,,,0.00,meteohub,2013-01-02 17:26:00,
2013-01-02 12:31:00,31.5,16.7,30.10,WNW,298,9.0,12.0,54,0.00,,,0.00,meteohub,2013-01-02 17:31:00,
2013-01-02 12:36:00,31.3,16.5,30.10,WNW,294,6.0,17.0,54,0.00,,,0.00,meteohub,2013-01-02 17:36:00,
2013-01-02 12:41:00,31.1,16.3,30.10,WNW,285,6.0,17.0,54,0.00,,,0.00,meteohub,2013-01-02 17:41:00,
2013-01-02 12:46:00,31.3,17.1,30.09,West,277,4.0,19.0,55,0.00,,,0.00,meteohub,2013-01-02 17:46:00,
2013-01-02 12:51:00,31.5,17.6,30.10,NNW,346,8.0,19.0,56,0.00,,,0.00,meteohub,2013-01-02 17:51:00,
2013-01-02 12:56:00,31.6,17.2,30.10,WNW,302,9.0,19.0,55,0.00,,,0.00,meteohub,2013-01-02 17:56:00,
2013-01-02 13:01:00,31.6,17.2,30.10,NNW,345,5.0,15.0,55,0.00,,,0.00,meteohub,2013-01-02 18:01:00,
2013-01-02 13:06:00,31.8,17.1,30.10,North,4,5.0,11.0,54,0.00,,,0.00,meteohub,2013-01-02 18:06:00,
2013-01-02 13:11:00,32.2,17.4,30.10,NW,311,5.0,11.0,54,0.00,,,0.00,meteohub,2013-01-02 18:11:00,
2013-01-02 13:16:00,32.4,17.6,30.10,WNW,287,7.0,11.0,54,0.00,,,0.00,meteohub,2013-01-02 18:16:00,
2013-01-02 13:21:00,31.8,17.1,30.10,West,271,4.0,14.0,54,0.00,,,0.00,meteohub,2013-01-02 18:21:00,
2013-01-02 13:26:00,32.4,18.0,30.09,NNW,333,7.0,14.0,55,0.00,,,0.00,meteohub,2013-01-02 18:26:00,
2013-01-02 13:31:00,32.2,17.4,30.10,NW,312,2.0,14.0,54,0.00,,,0.00,meteohub,2013-01-02 18:31:00,
2013-01-02 13:36:00,32.4,17.6,30.10,WNW,297,9.0,13.0,54,0.00,,,0.00,meteohub,2013-01-02 18:36:00,
2013-01-02 13:41:00,32.4,17.6,30.10,NNE,15,6.0,13.0,54,0.00,,,0.00,meteohub,2013-01-02 18:41:00,
2013-01-02 13:46:00,32.7,17.4,30.10,NNW,332,10.0,13.0,53,0.00,,,0.00,meteohub,2013-01-02 18:46:00,
2013-01-02 13:51:00,32.7,17.4,30.10,NW,317,7.0,13.0,53,0.00,,,0.00,meteohub,2013-01-02 18:51:00,
2013-01-02 13:56:00,33.1,17.8,30.10,WNW,298,10.0,13.0,53,0.00,,,0.00,meteohub,2013-01-02 18:56:00,
2013-01-02 14:01:00,33.3,17.6,30.10,NW,304,6.0,14.0,52,0.00,,,0.00,meteohub,2013-01-02 19:01:00,
2013-01-02 14:06:00,33.1,17.4,30.10,North,349,6.0,15.0,52,0.00,,,0.00,meteohub,2013-01-02 19:06:00,
2013-01-02 14:11:00,33.1,17.4,30.11,West,278,8.0,15.0,52,0.00,,,0.00,meteohub,2013-01-02 19:11:00,
2013-01-02 14:16:00,33.1,17.8,30.11,WNW,283,6.0,15.0,53,0.00,,,0.00,meteohub,2013-01-02 19:16:00,
2013-01-02 14:21:00,33.4,17.8,30.11,WNW,289,2.0,15.0,52,0.00,,,0.00,meteohub,2013-01-02 19:21:00,
2013-01-02 14:26:00,33.4,17.2,30.10,NNW,345,8.0,15.0,51,0.00,,,0.00,meteohub,2013-01-02 19:26:00,
2013-01-02 14:31:00,33.6,17.4,30.10,NNW,328,6.0,12.0,51,0.00,,,0.00,meteohub,2013-01-02 19:31:00,
2013-01-02 14:36:00,34.0,17.2,30.11,WNW,291,8.0,10.0,50,0.00,,,0.00,meteohub,2013-01-02 19:36:00,
2013-01-02 14:41:00,34.2,17.1,30.11,NW,324,5.0,13.0,49,0.00,,,0.00,meteohub,2013-01-02 19:41:00,
2013-01-02 14:46:00,34.2,16.5,30.11,WNW,297,10.0,13.0,48,0.00,,,0.00,meteohub,2013-01-02 19:46:00,
2013-01-02 14:51:00,34.0,16.9,30.11,West,281,3.0,16.0,49,0.00,,,0.00,meteohub,2013-01-02 19:51:00,
2013-01-02 14:56:00,34.0,16.3,30.11,WNW,291,8.0,16.0,48,0.00,,,0.00,meteohub,2013-01-02 19:56:00,
2013-01-02 15:01:00,34.2,16.5,30.11,NNW,333,6.0,16.0,48,0.00,,,0.00,meteohub,2013-01-02 20:01:00,
2013-01-02 15:06:00,34.2,16.5,30.12,WNW,287,8.0,11.0,48,0.00,,,0.00,meteohub,2013-01-02 20:06:00,
2013-01-02 15:11:00,34.2,16.0,30.11,NNW,329,7.0,13.0,47,0.00,,,0.00,meteohub,2013-01-02 20:11:00,
2013-01-02 15:16:00,34.2,16.5,30.11,WSW,253,6.0,13.0,48,0.00,,,0.00,meteohub,2013-01-02 20:16:00,
2013-01-02 15:21:00,34.2,16.5,30.12,North,352,3.0,13.0,48,0.00,,,0.00,meteohub,2013-01-02 20:21:00,
2013-01-02 15:26:00,34.0,16.3,30.12,NNW,346,5.0,10.0,48,0.00,,,0.00,meteohub,2013-01-02 20:26:00,
2013-01-02 15:31:00,34.0,16.3,30.12,NW,316,5.0,10.0,48,0.00,,,0.00,meteohub,2013-01-02 20:31:00,
2013-01-02 15:36:00,34.0,16.9,30.12,NW,305,2.0,10.0,49,0.00,,,0.00,meteohub,2013-01-02 20:36:00,
2013-01-02 15:41:00,34.0,16.3,30.12,NW,326,8.0,12.0,48,0.00,,,0.00,meteohub,2013-01-02 20:41:00,
2013-01-02 15:46:00,34.0,16.9,30.13,NNW,339,5.0,15.0,49,0.00,,,0.00,meteohub,2013-01-02 20:46:00,
2013-01-02 15:51:00,34.0,16.9,30.12,WNW,301,5.0,15.0,49,0.00,,,0.00,meteohub,2013-01-02 20:51:00,
2013-01-02 15:56:00,34.0,16.3,30.12,NW,314,8.0,15.0,48,0.00,,,0.00,meteohub,2013-01-02 20:56:00,
2013-01-02 16:01:00,34.0,16.3,30.13,NW,319,4.0,15.0,48,0.00,,,0.00,meteohub,2013-01-02 21:01:00,
2013-01-02 16:06:00,34.0,16.9,30.12,NW,308,4.0,15.0,49,0.00,,,0.00,meteohub,2013-01-02 21:06:00,
2013-01-02 16:11:00,34.0,16.3,30.12,NW,304,4.0,14.0,48,0.00,,,0.00,meteohub,2013-01-02 21:11:00,
2013-01-02 16:16:00,33.6,16.0,30.12,NW,315,2.0,12.0,48,0.00,,,0.00,meteohub,2013-01-02 21:16:00,
2013-01-02 16:21:00,33.6,16.5,30.12,NW,307,2.0,12.0,49,0.00,,,0.00,meteohub,2013-01-02 21:21:00,
2013-01-02 16:26:00,33.4,16.3,30.13,NW,316,2.0,12.0,49,0.00,,,0.00,meteohub,2013-01-02 21:26:00,
2013-01-02 16:31:00,33.3,16.7,30.13,NW,308,4.0,8.0,50,0.00,,,0.00,meteohub,2013-01-02 21:31:00,
2013-01-02 16:36:00,33.3,16.2,30.13,WNW,302,3.0,8.0,49,0.00,,,0.00,meteohub,2013-01-02 21:36:00,
2013-01-02 16:41:00,33.1,16.9,30.13,NNW,345,1.0,8.0,51,0.00,,,0.00,meteohub,2013-01-02 21:41:00,
2013-01-02 16:46:00,32.9,16.3,30.13,NNE,13,1.0,10.0,50,0.00,,,0.00,meteohub,2013-01-02 21:46:00,
2013-01-02 16:51:00,32.7,16.5,30.13,NW,316,0.0,10.0,51,0.00,,,0.00,meteohub,2013-01-02 21:51:00,
2013-01-02 16:56:00,32.7,16.5,30.14,WNW,302,2.0,10.0,51,0.00,,,0.00,meteohub,2013-01-02 21:56:00,
2013-01-02 17:01:00,32.5,16.3,30.14,NW,321,1.0,8.0,51,0.00,,,0.00,meteohub,2013-01-02 22:01:00,
2013-01-02 17:06:00,32.4,16.7,30.15,NNW,336,0.0,5.0,52,0.00,,,0.00,meteohub,2013-01-02 22:06:00,
2013-01-02 17:11:00,32.2,16.5,30.15,WNW,291,2.0,5.0,52,0.00,,,0.00,meteohub,2013-01-02 22:11:00,
2013-01-02 17:16:00,32.2,16.2,30.15,NNW,328,1.0,5.0,51,0.00,,,0.00,meteohub,2013-01-02 22:16:00,
2013-01-02 17:21:00,32.2,16.5,30.16,WNW,294,2.0,4.0,52,0.00,,,0.00,meteohub,2013-01-02 22:21:00,
2013-01-02 17:26:00,32.2,16.2,30.16,North,358,3.0,7.0,51,0.00,,,0.00,meteohub,2013-01-02 22:26:00,
2013-01-02 17:31:00,32.2,16.5,30.16,NNW,345,2.0,7.0,52,0.00,,,0.00,meteohub,2013-01-02 22:31:00,
2013-01-02 17:36:00,32.2,16.5,30.16,NW,325,1.0,7.0,52,0.00,,,0.00,meteohub,2013-01-02 22:36:00,
2013-01-02 17:42:00,32.0,16.0,30.16,NNW,328,3.0,5.0,51,0.00,,,0.00,meteohub,2013-01-02 22:42:00,
2013-01-02 17:47:00,31.8,16.2,30.16,NW,324,1.0,5.0,52,0.00,,,0.00,meteohub,2013-01-02 22:47:00,
2013-01-02 17:52:00,31.8,16.2,30.17,NW,307,3.0,6.0,52,0.00,,,0.00,meteohub,2013-01-02 22:52:00,
2013-01-02 17:57:00,31.8,16.2,30.17,WNW,302,4.0,6.0,52,0.00,,,0.00,meteohub,2013-01-02 22:57:00,
2013-01-02 18:02:00,31.6,16.5,30.17,NW,309,1.0,6.0,53,0.00,,,0.00,meteohub,2013-01-02 23:02:00,
2013-01-02 18:07:00,31.6,16.5,30.16,NW,307,0.0,6.0,53,0.00,,,0.00,meteohub,2013-01-02 23:07:00,
2013-01-02 18:12:00,31.5,16.3,30.17,NW,312,0.0,6.0,53,0.00,,,0.00,meteohub,2013-01-02 23:12:00,
2013-01-02 18:17:00,31.6,16.5,30.17,North,356,0.0,6.0,53,0.00,,,0.00,meteohub,2013-01-02 23:17:00,
2013-01-02 18:22:00,31.6,16.5,30.18,NW,305,1.0,6.0,53,0.00,,,0.00,meteohub,2013-01-02 23:22:00,
2013-01-02 18:27:00,31.5,16.3,30.18,WNW,302,2.0,6.0,53,0.00,,,0.00,meteohub,2013-01-02 23:27:00,
2013-01-02 18:32:00,31.5,16.7,30.18,NW,304,0.0,6.0,54,0.00,,,0.00,meteohub,2013-01-02 23:32:00,
2013-01-02 18:37:00,31.3,16.5,30.18,WNW,293,0.0,3.0,54,0.00,,,0.00,meteohub,2013-01-02 23:37:00,
2013-01-02 18:42:00,31.3,16.5,30.18,NNW,335,1.0,3.0,54,0.00,,,0.00,meteohub,2013-01-02 23:42:00,
2013-01-02 18:47:00,31.3,16.5,30.18,NW,308,2.0,3.0,54,0.00,,,0.00,meteohub,2013-01-02 23:47:00,
2013-01-02 18:52:00,31.3,16.5,30.18,NW,312,1.0,3.0,54,0.00,,,0.00,meteohub,2013-01-02 23:52:00,
2013-01-02 18:57:00,31.3,16.5,30.18,WNW,293,1.0,3.0,54,0.00,,,0.00,meteohub,2013-01-02 23:57:00,
2013-01-02 19:02:00,30.9,17.1,30.18,WNW,284,0.0,3.0,56,0.00,,,0.00,meteohub,2013-01-03 00:02:00,
2013-01-02 19:07:00,30.9,17.1,30.18,West,281,2.0,3.0,56,0.00,,,0.00,meteohub,2013-01-03 00:07:00,
2013-01-02 19:12:00,30.7,17.2,30.18,WSW,250,0.0,3.0,57,0.00,,,0.00,meteohub,2013-01-03 00:12:00,
2013-01-02 19:17:00,30.6,17.6,30.19,West,269,1.0,4.0,58,0.00,,,0.00,meteohub,2013-01-03 00:17:00,
2013-01-02 19:22:00,30.6,18.0,30.19,WSW,243,0.0,4.0,59,0.00,,,0.00,meteohub,2013-01-03 00:22:00,
2013-01-02 19:27:00,30.4,18.1,30.19,West,281,2.0,4.0,60,0.00,,,0.00,meteohub,2013-01-03 00:27:00,
2013-01-02 19:32:00,30.4,18.5,30.19,WNW,295,4.0,5.0,61,0.00,,,0.00,meteohub,2013-01-03 00:32:00,
2013-01-02 19:37:00,30.0,18.5,30.19,WNW,287,2.0,5.0,62,0.00,,,0.00,meteohub,2013-01-03 00:37:00,
2013-01-02 19:42:00,30.0,18.5,30.19,WSW,250,1.0,6.0,62,0.00,,,0.00,meteohub,2013-01-03 00:42:00,
2013-01-02 19:47:00,29.8,18.5,30.18,West,266,0.0,6.0,62,0.00,,,0.00,meteohub,2013-01-03 00:47:00,
2013-01-02 19:52:00,29.7,18.7,30.18,West,281,1.0,6.0,63,0.00,,,0.00,meteohub,2013-01-03 00:52:00,
2013-01-02 19:57:00,29.7,18.7,30.19,WNW,294,2.0,4.0,63,0.00,,,0.00,meteohub,2013-01-03 00:57:00,
2013-01-02 20:02:00,29.7,18.7,30.19,WNW,288,2.0,4.0,63,0.00,,,0.00,meteohub,2013-01-03 01:02:00,
2013-01-02 20:07:00,29.7,18.7,30.19,WNW,289,4.0,5.0,63,0.00,,,0.00,meteohub,2013-01-03 01:07:00,
2013-01-02 20:12:00,29.7,18.7,30.19,West,281,3.0,6.0,63,0.00,,,0.00,meteohub,2013-01-03 01:12:00,
2013-01-02 20:17:00,29.5,18.9,30.19,West,281,1.0,6.0,64,0.00,,,0.00,meteohub,2013-01-03 01:17:00,
2013-01-02 20:22:00,29.3,18.7,30.19,West,264,2.0,6.0,64,0.00,,,0.00,meteohub,2013-01-03 01:22:00,
2013-01-02 20:27:00,29.1,18.5,30.19,WNW,291,2.0,5.0,64,0.00,,,0.00,meteohub,2013-01-03 01:27:00,
2013-01-02 20:32:00,29.1,18.9,30.19,WNW,295,3.0,5.0,65,0.00,,,0.00,meteohub,2013-01-03 01:32:00,
2013-01-02 20:37:00,28.9,18.3,30.19,WNW,296,2.0,6.0,64,0.00,,,0.00,meteohub,2013-01-03 01:37:00,
2013-01-02 20:42:00,28.9,18.3,30.19,WNW,298,3.0,6.0,64,0.00,,,0.00,meteohub,2013-01-03 01:42:00,
2013-01-02 20:47:00,28.9,18.7,30.20,WNW,298,2.0,6.0,65,0.00,,,0.00,meteohub,2013-01-03 01:47:00,
2013-01-02 20:52:00,28.8,18.5,30.19,WNW,297,2.0,5.0,65,0.00,,,0.00,meteohub,2013-01-03 01:52:00,
2013-01-02 20:57:00,28.8,18.5,30.19,WNW,285,2.0,5.0,65,0.00,,,0.00,meteohub,2013-01-03 01:57:00,
2013-01-02 21:02:00,28.6,18.3,30.20,WNW,287,1.0,4.0,65,0.00,,,0.00,meteohub,2013-01-03 02:02:00,
2013-01-02 21:07:00,28.6,18.7,30.20,WNW,291,1.0,4.0,66,0.00,,,0.00,meteohub,2013-01-03 02:07:00,
2013-01-02 21:12:00,28.6,18.7,30.20,West,263,3.0,5.0,66,0.00,,,0.00,meteohub,2013-01-03 02:12:00,
2013-01-02 21:17:00,28.6,18.7,30.20,WNW,294,2.0,5.0,66,0.00,,,0.00,meteohub,2013-01-03 02:17:00,
2013-01-02 21:22:00,28.6,18.3,30.20,West,276,2.0,5.0,65,0.00,,,0.00,meteohub,2013-01-03 02:22:00,
2013-01-02 21:27:00,28.6,18.3,30.21,WNW,297,2.0,6.0,65,0.00,,,0.00,meteohub,2013-01-03 02:27:00,
2013-01-02 21:32:00,28.8,18.9,30.20,WNW,294,1.0,6.0,66,0.00,,,0.00,meteohub,2013-01-03 02:32:00,
2013-01-02 21:37:00,28.6,18.7,30.21,WNW,294,3.0,6.0,66,0.00,,,0.00,meteohub,2013-01-03 02:37:00,
2013-01-02 21:42:00,28.6,18.7,30.21,WNW,297,3.0,6.0,66,0.00,,,0.00,meteohub,2013-01-03 02:42:00,
2013-01-02 21:47:00,28.6,18.7,30.21,West,271,2.0,6.0,66,0.00,,,0.00,meteohub,2013-01-03 02:47:00,
2013-01-02 21:52:00,28.6,18.7,30.21,WNW,290,4.0,6.0,66,0.00,,,0.00,meteohub,2013-01-03 02:52:00,
2013-01-02 21:57:00,28.6,18.3,30.21,WSW,252,1.0,6.0,65,0.00,,,0.00,meteohub,2013-01-03 02:57:00,
2013-01-02 22:02:00,28.6,18.3,30.21,WSW,256,5.0,5.0,65,0.00,,,0.00,meteohub,2013-01-03 03:02:00,
2013-01-02 22:07:00,28.6,18.3,30.21,WNW,287,3.0,6.0,65,0.00,,,0.00,meteohub,2013-01-03 03:07:00,
2013-01-02 22:12:00,28.6,18.3,30.21,WNW,287,1.0,6.0,65,0.00,,,0.00,meteohub,2013-01-03 03:12:00,
2013-01-02 22:17:00,28.6,18.7,30.21,West,272,1.0,6.0,66,0.00,,,0.00,meteohub,2013-01-03 03:17:00,
2013-01-02 22:23:00,28.6,18.3,30.22,West,263,3.0,5.0,65,0.00,,,0.00,meteohub,2013-01-03 03:23:00,
2013-01-02 22:28:00,28.6,18.3,30.22,WNW,285,1.0,6.0,65,0.00,,,0.00,meteohub,2013-01-03 03:28:00,
2013-01-02 22:33:00,28.4,18.5,30.22,WNW,294,3.0,6.0,66,0.00,,,0.00,meteohub,2013-01-03 03:33:00,
2013-01-02 22:38:00,28.2,18.3,30.22,WNW,289,4.0,6.0,66,0.00,,,0.00,meteohub,2013-01-03 03:38:00,
2013-01-02 22:47:00,28.2,18.3,30.22,West,276,1.0,5.0,66,0.00,,,0.00,meteohub,2013-01-03 03:47:00,
2013-01-02 22:52:00,28.2,18.3,30.23,West,262,3.0,5.0,66,0.00,,,0.00,meteohub,2013-01-03 03:52:00,
2013-01-02 22:57:00,28.0,18.1,30.23,WNW,284,3.0,5.0,66,0.00,,,0.00,meteohub,2013-01-03 03:57:00,
2013-01-02 23:02:00,28.0,18.5,30.24,WNW,297,1.0,5.0,67,0.00,,,0.00,meteohub,2013-01-03 04:02:00,
2013-01-02 23:07:00,28.0,18.5,30.24,WNW,287,2.0,5.0,67,0.00,,,0.00,meteohub,2013-01-03 04:07:00,
2013-01-02 23:12:00,28.0,18.5,30.24,WNW,293,1.0,5.0,67,0.00,,,0.00,meteohub,2013-01-03 04:12:00,
2013-01-02 23:17:00,27.9,18.3,30.24,WNW,288,0.0,5.0,67,0.00,,,0.00,meteohub,2013-01-03 04:17:00,
2013-01-02 23:22:00,27.9,18.3,30.24,WNW,287,2.0,5.0,67,0.00,,,0.00,meteohub,2013-01-03 04:22:00,
2013-01-02 23:27:00,27.9,18.3,30.24,NW,304,2.0,5.0,67,0.00,,,0.00,meteohub,2013-01-03 04:27:00,
2013-01-02 23:32:00,27.9,18.7,30.24,NW,304,1.0,4.0,68,0.00,,,0.00,meteohub,2013-01-03 04:32:00,
2013-01-02 23:37:00,27.7,18.5,30.24,WNW,290,1.0,4.0,68,0.00,,,0.00,meteohub,2013-01-03 04:37:00,
2013-01-02 23:42:00,27.7,18.5,30.24,WNW,290,2.0,4.0,68,0.00,,,0.00,meteohub,2013-01-03 04:42:00,
2013-01-02 23:47:00,27.7,18.5,30.24,WNW,292,3.0,6.0,68,0.00,,,0.00,meteohub,2013-01-03 04:47:00,
2013-01-02 23:52:00,27.7,18.5,30.24,West,279,2.0,6.0,68,0.00,,,0.00,meteohub,2013-01-03 04:52:00,
2013-01-02 23:57:00,27.7,18.5,30.24,NW,315,2.0,6.0,68,0.00,,,0.00,meteohub,2013-01-03 04:57:00,